Location: Nelson
(41.2830°S, 173.2830°E)
Time: 08:17:25
(UTC+13:00)

Cosmos 1633 Rocket - Pass Details

Date: 24 January 2019
Orbit: 606 x 625 km, 82.5° (Epoch: 16 October)

Event Time Altitude Azimuth Distance (km) Brightness Sun altitude
Rises 22:07:21 0° 196° (SSW) 2,909 7.5 -12.2°
Reaches altitude 10° 22:09:41 10° 203° (SSW) 1,998 6.7 -12.5°
Maximum altitude 22:13:48 40° 272° (W) 921 4.4 -13.1°
Drops below altitude 10° 22:17:54 10° 341° (NNW) 1,979 5.4 -13.7°
Enters shadow 22:19:54 - 347° (NNW) 2,757 6.1 -14.0°
